{"data":{"norad_id":43807,"intl_designator":"2018-099BB","name":"EUCROPIS","alt_names":[],"object_type":"PAYLOAD","status":"ACTIVE","operator":null,"country":"GER","launch_date":"2018-12-03","launch_site_code":"AFWTR","launch_vehicle":null,"mission":null,"orbit_class":"UNKNOWN","rcs_meters":null,"size_class":null,"mass_kg":null,"dimensions":null,"purposes":[],"wikipedia_slug":null,"has_3d_model":false,"image_url":null,"decayed_at":null,"tle_current":{"epoch":"2026-09-19T22:06:08.136000Z","epoch_age_seconds":96046,"freshness":"FRESH","line1":"1 43807U 18099BB  26262.92092750  .00004531  00000+0  20288-3 0  9996","line2":"2 43807  97.4128 317.2860 0004356 342.4190  17.6895 15.21758097426860","mean_motion":15.21758097,"eccentricity":0.0004356,"inclination_deg":97.4128,"raan_deg":317.286,"arg_perigee_deg":342.419,"mean_anomaly_deg":17.6895,"bstar":0.00020288,"rev_number":42686,"period_min":94.62739201709,"perigee_km":497.54117235039,"apogee_km":503.5338735948,"semimajor_km":6878.6745229726,"source":"CELESTRAK","updated_at":"2026-09-20T09:00:14.409101Z"}}}